When you browse on this site, cookies collect data to enhance your experience and personalize the content and advertising you see.
Visit our Privacy Policy to learn more. By continuing to use the site, you agree to this use of cookies and data.
  • In Czech Republic
  • List of Countries
  • For 7 days
  • Water Temperature
  • Weather Map
  • Weather Widgets
  • user-avatar
    Login

    Hourly Weather Satif

    Today, 15 September, Sunday

    Time Temperature Precipitation Wind Pressure Humidity
    00:00 +25°C° 0 mm 2 mps 678 mmHg 54%
    01:00 +24°C° 0 mm 2 mps 678 mmHg 55%
    02:00 +24°C° 0 mm 2 mps 677 mmHg 57%
    03:00 +23°C° 0 mm 1 mps 677 mmHg 58%
    04:00 +23°C° 0 mm 1 mps 677 mmHg 57%
    05:00 +23°C° 0 mm 2 mps 677 mmHg 56%
    06:00 +23°C° 0 mm 2 mps 677 mmHg 55%
    07:00 +25°C° 0 mm 3 mps 677 mmHg 48%
    08:00 +27°C° 0 mm 3 mps 678 mmHg 42%
    09:00 +29°C° 0 mm 4 mps 678 mmHg 36%
    10:00 +30°C° 0 mm 4 mps 679 mmHg 34%
    11:00 +32°C° 0 mm 4 mps 679 mmHg 31%
    12:00 +33°C° 0 mm 4 mps 679 mmHg 28%
    13:00 +33°C° 0 mm 4 mps 679 mmHg 31%
    14:00 +32°C° 0 mm 4 mps 678 mmHg 33%
    15:00 +32°C° 0 mm 4 mps 678 mmHg 36%
    16:00 +30°C° 0 mm 3 mps 677 mmHg 39%
    17:00 +29°C° 0 mm 3 mps 677 mmHg 42%
    18:00 +28°C° 0 mm 2 mps 677 mmHg 46%
    19:00 +27°C° 0 mm 3 mps 677 mmHg 48%
    20:00 +27°C° 0 mm 3 mps 677 mmHg 51%
    21:00 +26°C° 0 mm 3 mps 677 mmHg 54%
    22:00 +26°C° 0 mm 3 mps 677 mmHg 54%
    23:00 +25°C° 0 mm 2 mps 677 mmHg 55%

    Tomorrow, 16 September, Monday

    Time Temperature Precipitation Wind Pressure Humidity
    00:00 +25°C° 0 mm 2 mps 677 mmHg 55%
    01:00 +25°C° 0 mm 2 mps 676 mmHg 55%
    02:00 +24°C° 0 mm 2 mps 676 mmHg 55%
    03:00 +24°C° 0 mm 1 mps 675 mmHg 55%
    04:00 +24°C° 0 mm 1 mps 675 mmHg 55%
    05:00 +24°C° 0 mm 1 mps 675 mmHg 55%
    06:00 +24°C° 0 mm 1 mps 675 mmHg 54%
    07:00 +25°C° 0.1 mm 1 mps 676 mmHg 48%
    08:00 +27°C° 0.1 mm 1 mps 677 mmHg 42%
    09:00 +28°C° 0.1 mm 2 mps 678 mmHg 37%
    10:00 +29°C° 0 mm 2 mps 678 mmHg 35%
    11:00 +30°C° 0 mm 2 mps 678 mmHg 33%
    12:00 +31°C° 0 mm 3 mps 678 mmHg 31%
    13:00 +33°C° 0 mm 3 mps 677 mmHg 31%
    14:00 +33°C° 0 mm 3 mps 677 mmHg 32%
    15:00 +33°C° 0 mm 3 mps 677 mmHg 32%
    16:00 +30°C° 0 mm 4 mps 677 mmHg 37%
    17:00 +29°C° 0 mm 4 mps 676 mmHg 43%
    18:00 +28°C° 0 mm 4 mps 676 mmHg 48%
    19:00 +27°C° 0 mm 3 mps 676 mmHg 51%
    20:00 +26°C° 0 mm 2 mps 676 mmHg 54%
    21:00 +26°C° 0 mm 1 mps 676 mmHg 57%
    22:00 +25°C° 0.1 mm 1 mps 676 mmHg 57%
    23:00 +25°C° 0.1 mm 2 mps 676 mmHg 56%

    Day after tomorrow, 17 September, Tuesday

    Time Temperature Precipitation Wind Pressure Humidity
    00:00 +24°C° 0.1 mm 2 mps 675 mmHg 55%
    01:00 +24°C° 0 mm 2 mps 675 mmHg 56%
    02:00 +23°C° 0 mm 1 mps 675 mmHg 57%
    03:00 +23°C° 0 mm 1 mps 674 mmHg 57%
    04:00 +23°C° 0 mm 1 mps 674 mmHg 59%
    05:00 +23°C° 0 mm 1 mps 674 mmHg 60%
    06:00 +23°C° 0 mm 1 mps 674 mmHg 62%
    07:00 +24°C° 0 mm 1 mps 675 mmHg 56%
    08:00 +26°C° 0 mm 1 mps 676 mmHg 50%
    09:00 +27°C° 0 mm 1 mps 676 mmHg 43%
    10:00 +28°C° 0 mm 1 mps 676 mmHg 40%
    11:00 +30°C° 0 mm 2 mps 676 mmHg 36%
    12:00 +31°C° 0 mm 3 mps 676 mmHg 32%
    13:00 +31°C° 0 mm 3 mps 676 mmHg 32%
    14:00 +32°C° 0 mm 4 mps 675 mmHg 33%
    15:00 +32°C° 0 mm 4 mps 675 mmHg 33%
    16:00 +30°C° 0 mm 3 mps 675 mmHg 39%
    17:00 +29°C° 0 mm 3 mps 674 mmHg 46%
    18:00 +27°C° 0 mm 2 mps 674 mmHg 52%
    19:00 +26°C° 0.3 mm 3 mps 674 mmHg 57%
    20:00 +25°C° 0.3 mm 4 mps 675 mmHg 63%
    21:00 +22°C° 0.3 mm 6 mps 675 mmHg 68%
    22:00 +22°C° 1.3 mm 5 mps 675 mmHg 70%
    23:00 +21°C° 1.3 mm 5 mps 675 mmHg 72%

    18 September, Wednesday

    Time Temperature Precipitation Wind Pressure Humidity
    00:00 +20°C° 1.3 mm 4 mps 675 mmHg 74%
    01:00 +20°C° 0 mm 3 mps 674 mmHg 72%
    02:00 +21°C° 0 mm 2 mps 673 mmHg 70%
    03:00 +22°C° 0 mm 1 mps 673 mmHg 68%
    04:00 +22°C° 0 mm 1 mps 673 mmHg 67%
    05:00 +21°C° 0 mm 1 mps 673 mmHg 67%
    06:00 +21°C° 0 mm 1 mps 673 mmHg 66%
    07:00 +23°C° 0 mm 1 mps 673 mmHg 57%
    08:00 +25°C° 0 mm 1 mps 674 mmHg 49%
    09:00 +26°C° 0 mm 1 mps 675 mmHg 41%
    10:00 +27°C° 0 mm 2 mps 675 mmHg 38%
    11:00 +29°C° 0 mm 2 mps 675 mmHg 35%
    12:00 +30°C° 0 mm 2 mps 675 mmHg 32%
    13:00 +30°C° 0 mm 3 mps 675 mmHg 31%
    14:00 +30°C° 0 mm 3 mps 675 mmHg 31%
    15:00 +30°C° 0 mm 4 mps 675 mmHg 31%
    16:00 +30°C° 0 mm 3 mps 675 mmHg 36%
    17:00 +29°C° 0 mm 2 mps 675 mmHg 41%
    18:00 +28°C° 0 mm 2 mps 674 mmHg 45%
    19:00 +27°C° 0 mm 2 mps 675 mmHg 48%
    20:00 +26°C° 0 mm 3 mps 675 mmHg 50%
    21:00 +25°C° 0 mm 4 mps 675 mmHg 53%
    22:00 +25°C° 0 mm 3 mps 675 mmHg 55%
    23:00 +24°C° 0 mm 3 mps 674 mmHg 57%

    19 September, Thursday

    Time Temperature Precipitation Wind Pressure Humidity
    00:00 +24°C° 0 mm 2 mps 674 mmHg 60%
    01:00 +23°C° 0.1 mm 2 mps 673 mmHg 58%
    02:00 +23°C° 0.1 mm 2 mps 673 mmHg 57%
    03:00 +23°C° 0.1 mm 2 mps 673 mmHg 56%
    04:00 +23°C° 0.2 mm 2 mps 673 mmHg 56%
    05:00 +23°C° 0.2 mm 2 mps 673 mmHg 56%
    06:00 +23°C° 0.2 mm 2 mps 673 mmHg 57%
    07:00 +24°C° 0 mm 3 mps 674 mmHg 50%
    08:00 +26°C° 0 mm 4 mps 675 mmHg 43%
    09:00 +28°C° 0 mm 5 mps 675 mmHg 36%
    10:00 +28°C° 0 mm 6 mps 675 mmHg 34%
    11:00 +29°C° 0 mm 6 mps 675 mmHg 32%
    12:00 +30°C° 0 mm 7 mps 675 mmHg 31%
    13:00 +30°C° 0 mm 7 mps 675 mmHg 31%
    14:00 +30°C° 0 mm 6 mps 675 mmHg 31%
    15:00 +30°C° 0 mm 6 mps 675 mmHg 32%
    16:00 +28°C° 0 mm 6 mps 675 mmHg 39%
    17:00 +27°C° 0 mm 5 mps 675 mmHg 46%
    18:00 +25°C° 0 mm 5 mps 675 mmHg 52%
    19:00 +25°C° 0.1 mm 3 mps 675 mmHg 54%
    20:00 +24°C° 0.1 mm 2 mps 675 mmHg 55%
    21:00 +24°C° 0.1 mm 1 mps 675 mmHg 57%
    22:00 +24°C° 0 mm 1 mps 675 mmHg 57%
    23:00 +24°C° 0 mm 1 mps 675 mmHg 56%

    20 September, Friday

    Time Temperature Precipitation Wind Pressure Humidity
    00:00 +24°C° 0 mm 1 mps 674 mmHg 56%
    01:00 +24°C° 0 mm 1 mps 674 mmHg 54%
    02:00 +24°C° 0 mm 1 mps 674 mmHg 53%
    03:00 +24°C° 0 mm 1 mps 674 mmHg 52%
    04:00 +23°C° 0.1 mm 1 mps 674 mmHg 53%
    05:00 +23°C° 0.1 mm 1 mps 674 mmHg 55%
    06:00 +23°C° 0.1 mm 1 mps 674 mmHg 57%
    07:00 +25°C° 0 mm 2 mps 675 mmHg 50%
    08:00 +26°C° 0 mm 3 mps 676 mmHg 44%
    09:00 +28°C° 0 mm 4 mps 677 mmHg 37%
    10:00 +28°C° 0 mm 5 mps 677 mmHg 36%
    11:00 +29°C° 0 mm 6 mps 677 mmHg 34%
    12:00 +30°C° 0 mm 6 mps 677 mmHg 33%
    13:00 +30°C° 0 mm 6 mps 677 mmHg 32%
    14:00 +30°C° 0 mm 5 mps 676 mmHg 32%
    15:00 +30°C° 0 mm 4 mps 676 mmHg 32%
    16:00 +28°C° 0.1 mm 4 mps 676 mmHg 35%
    17:00 +27°C° 0.1 mm 4 mps 676 mmHg 38%
    18:00 +25°C° 0.1 mm 4 mps 675 mmHg 42%
    19:00 +25°C° 0 mm 3 mps 676 mmHg 43%
    20:00 +25°C° 0 mm 2 mps 676 mmHg 44%
    21:00 +25°C° 0 mm 1 mps 676 mmHg 45%
    22:00 +25°C° 0 mm 1 mps 676 mmHg 45%
    23:00 +24°C° 0 mm 1 mps 676 mmHg 44%
    Show more